Regional Weather Roundup
Issued by NWS

Home | Current Version | Previous Version | Graphics & Text | Print | Product List | Glossary On
Versions: 1 2 3 4 5 6 7 8 9 10 11 12 13 14 15 16 17 18 19 20 21 22 23 24 25 26 27 28 29 30 31 32 33 34 35 36 37 38 39 40 41 42 43 44 45 46 47 48 49 50
000
ASUS43 KDTX 230301
RWRMI
MICHIGAN HOURLY REGIONAL WEATHER ROUNDUP
NATIONAL WEATHER SERVICE DETROIT/PONTIAC MI
1100 PM EDT FRI MAY 22 2015

NOTE: "FAIR" INDICATES FEW OR NO CLOUDS BELOW 12,000 FEET WITH NO
SIGNIFICANT WEATHER AND/OR OBSTRUCTION TO VISIBILITY.

MIZ047>049-052>055-059>063-066>070-074>076-081>083-230400-
SOUTHEAST LOWER MICHIGAN

CITY           SKY/WX    TMP DP  RH WIND       PRES   REMARKS
ADRIAN         PTCLDY    52  38  58 NW6       30.30R
ALMA           CLEAR     45  33  61 CALM      30.31S
ANN ARBOR      PTCLDY    53  36  52 E8        30.31R
BAD AXE        CLEAR     34  26  74 S3        30.32S
CARO           CLEAR     39  28  63 SE3       30.33R
DETROIT CITY   CLEAR     46  28  49 NE6       30.34R
DETROIT        PTCLDY    52  30  43 NE9       30.33R
FLINT          CLEAR     46  27  47 E8        30.34R
GROSSE ILE     PTCLDY    50  34  53 NE8       30.31R
HILLSDALE      PTCLDY    55  32  41 NW6       30.31R
HOWELL         PTCLDY    50  33  52 E7        30.32R

CITY           SKY/WX    TMP DP  RH WIND       PRES   REMARKS
JACKSON        PTCLDY    53  36  52 W3        30.31R
LAMBERTVILLE   CLEAR     50  41  71 CALM      30.29R
LANSING        MOCLDY    51  34  52 CALM      30.32R
LAPEER         FAIR      39  27  60 CALM      30.33R
MASON          MOCLDY    51  35  54 N6        30.31R
MONROE         PTCLDY    55  46  71 NE5       30.29R
MT. CLEMENS    CLEAR     40  28  62 N6        30.31R
PONTIAC        PTCLDY    44  25  47 E7        30.32R
PORT HOPE        N/A     40  30  67 SW6       30.30S
PORT HURON     CLEAR     34  30  86 CALM      30.33R
TRI CITIES     CLEAR     50  37  61 E3        30.31R
MIDLAND        FAIR      43  37  78 CALM      30.31R
TROY           PTCLDY    47  21  35 NE7       30.35R
SAGINAW HB     CLEAR     45  28  53 SE7       30.32R
$$
MIZ043>046-050>051-056>058-064>065-071>073-077>080-230400-
SOUTHWEST LOWER MICHIGAN

CITY           SKY/WX    TMP DP  RH WIND       PRES   REMARKS
BATTLE CREEK   PTCLDY    52  32  46 CALM      30.32R
BENTON HARBOR  MOCLDY    44  38  79 CALM      30.30S
BIG RAPIDS     CLEAR     44  31  59 W3        30.30R
COLDWATER      PTCLDY    52  32  46 N3        30.31R
FREMONT        FAIR      43  26  50 CALM      30.30R
HOLLAND        PTCLDY    47  37  68 CALM      30.32R
GRAND RAPIDS   MOCLDY    50  32  50 CALM      30.31R
IONIA          FAIR      51  31  47 CALM      30.31R
KALAMAZOO      MOCLDY    51  32  48 CALM      30.32R
LUDINGTON      CLEAR     42  32  68 CALM      30.29R
MARSHALL       PTCLDY    48  35  60 CALM      30.31R
MOUNT PLEASANT CLEAR     44  31  61 CALM      30.30R
MUSKEGON       MOCLDY    48  32  53 CALM      30.31R
SOUTH HAVEN    MOCLDY    44  39  83 CALM      30.31R
$$
MIZ016>042-230400-
NORTHERN LOWER MICHIGAN

CITY           SKY/WX    TMP DP  RH WIND       PRES   REMARKS
ALPENA         CLEAR     38  29  70 CALM      30.30R
BEAVER ISLAND  CLEAR     38  28  67 CALM      30.28S
BELLAIRE       CLEAR     38  32  79 CALM      30.29R
CADILLAC       CLEAR     40  29  64 CALM      30.29R
CHARLEVOIX     CLEAR     42  30  62 CALM      30.31S
FRANKFORT      CLEAR     42  30  62 CALM      30.28S
GAYLORD        CLEAR     40  26  57 W5        30.28S
HARBOR SPRINGS CLEAR     38  29  70 CALM      30.28F
HOUGHTON LAKE  CLEAR     40  29  64 CALM      30.30R
MANISTEE       CLEAR     43  30  61 CALM      30.29S
OSCODA         CLEAR     37  30  75 CALM      30.29F
PELLSTON       CLEAR     34  26  72 CALM      30.29S
ROGERS CITY    FAIR      36  31  81 SW3       30.30S
TRAVERSE CITY  CLEAR     43  31  62 CALM      30.28R
$$
MIZ007>008-015-230400-
EASTERN UPPER MICHIGAN

CITY           SKY/WX    TMP DP  RH WIND       PRES   REMARKS
KINROSS        CLEAR     36  25  64 CALM      30.28S
MACKINAC ISLAN CLEAR     43  32  65 W6        30.28S
NEWBERRY       CLEAR     37  31  77 CALM      30.27S
S. S. MARIE    CLEAR     37  22  54 NW5       30.27S WCI  33
$$
MIZ004>006-011>014-085-230400-
CENTRAL UPPER MICHIGAN

CITY           SKY/WX    TMP DP  RH WIND       PRES   REMARKS
MANISTIQUE     CLEAR     39  34  82 CALM      30.27F
ESCANABA       CLEAR     39  32  75 CALM      30.28R
MENOMINEE      CLEAR     46  28  49 SE8       30.27R
SAWYER-GWINN   CLEAR     47  28  46 S6        30.25S
$$
MIZ001>003-009>011-084-230400-
WESTERN UPPER MICHIGAN

CITY           SKY/WX    TMP DP  RH WIND       PRES   REMARKS
IRON MOUNTAIN  CLEAR     48  32  53 SE3       30.25R
HOUGHTON       CLEAR     40  26  57 E6        30.20S
COPPER HARBOR    N/A     42  24  49 SW15G22   30.19F
IRONWOOD       CLEAR     54  34  47 S6        30.17R
$$

ABBREVIATIONS USED IN REMARKS
   TC - TEMPERATURE IN CELSIUS
  WCI - WIND CHILL INDEX
   HX - HEAT INDEX
  VSB - VISIBILITY




USA.gov is the U.S. government's official web portal to all federal, state and local government web resources and services.